{"data":{"norad_id":65497,"intl_designator":"2025-198F","name":"STARLINK-34455","alt_names":[],"object_type":"PAYLOAD","status":"ACTIVE","operator":null,"country":"US","launch_date":"2025-09-05","launch_site_code":"AFETR","launch_vehicle":null,"mission":null,"orbit_class":"UNKNOWN","rcs_meters":null,"size_class":null,"mass_kg":null,"dimensions":null,"purposes":["comms"],"wikipedia_slug":null,"has_3d_model":false,"image_url":null,"decayed_at":null,"tle_current":{"epoch":"2026-09-20T22:10:17.291136Z","epoch_age_seconds":75436,"freshness":"FRESH","line1":"1 65497U 25198F   26263.92381124  .00022718  00000+0  68122-3 0  9996","line2":"2 65497  53.1653  79.7352 0001034  39.5664 320.5414 15.34412007 58571","mean_motion":15.34412007,"eccentricity":0.0001034,"inclination_deg":53.1653,"raan_deg":79.7352,"arg_perigee_deg":39.5664,"mean_anomaly_deg":320.5414,"bstar":0.00068122,"rev_number":5857,"period_min":93.847023708802,"perigee_km":461.96021391467,"apogee_km":463.37489229625,"semimajor_km":6840.8045531055,"source":"CELESTRAK","updated_at":"2026-09-21T09:00:35.641933Z"}}}